Flag for New Zealand Weather past 2 weeks in Auckland, New Zealand

Now
57 °F

Cool.


Feels Like: 55 °F
Forecast: 45 / 57 °F
Wind: 9 mph from Southwest

Location: Auckland Airport

Current Time: Aug 23, 2014 at 12:26:30 PM

Latest Report: Aug 23, 2014 at 11:30 AM


Visibility: N/A

Pressure: 30.42 "Hg

Humidity: 72%

Dew point: 48 °F

Location of AucklandLocation

Historic Weather in Auckland — Graph

°F

Auckland temperature yesterday

Maximum temperature yesterday: 55 °F (at 2:30 PM)
Minimum temperature yesterday: 41 °F (at 3:30 AM)
Average temperature yesterday: 48 °F

Past Weeks' High & Low Weather Summary

 TemperatureHumidityPressure
High61 °F (Aug 11, 2:00 PM)100% (Aug 10, 8:30 PM)30.42 "Hg (Aug 10, 8:30 PM)
Low39 °F (Aug 10, 4:00 AM)47% (Aug 9, 12:30 PM)29.53 "Hg (Aug 20, 3:00 PM)
Average52 °F80%30.01 "Hg
* Reported Aug 8 11:00 AM — Aug 23 11:30 AM, Auckland, Weather by CustomWeather, © 2014

Note: Actual official high and low records may vary slightly from our data, if they occured in-between our weather recording intervals... More about our weather records

Advertising

Auckland weather history for previous 24 hours

 ConditionsComfort  
Time TempWeatherWind HumidityBarometerVisibility
11:30 AM
Aug 23
57 °FCool.9 mph72%30.42 "HgN/A
11:00 AM55 °FCool.3 mph67%30.42 "HgN/A
10:30 AM54 °FCool.5 mph67%30.42 "HgN/A
10:00 AM54 °FCool.6 mph72%30.42 "HgN/A
9:30 AM52 °FCool.8 mph77%30.42 "HgN/A
9:00 AM52 °FCool.8 mph72%30.42 "HgN/A
8:30 AM50 °FCool.9 mph76%30.42 "HgN/A
8:00 AM50 °FCool.9 mph76%30.42 "HgN/A
7:30 AM46 °FCool.7 mph87%30.42 "HgN/A
7:00 AM46 °FCool.7 mph82%30.42 "HgN/A
6:30 AM48 °FCool.8 mph76%30.42 "HgN/A
6:00 AM46 °FCool.9 mph82%30.42 "HgN/A
5:30 AM46 °FCool.6 mph82%30.39 "HgN/A
5:00 AM48 °FCool.10 mph76%30.39 "HgN/A
4:30 AM46 °FCool.10 mph82%30.39 "HgN/A
4:00 AM48 °FCool.12 mph76%30.39 "HgN/A
3:30 AM48 °FCool.12 mph76%30.39 "HgN/A
3:00 AM48 °FCool.9 mph76%30.42 "HgN/A
2:30 AM46 °FCool.9 mph76%30.42 "HgN/A
2:00 AM48 °FCool.12 mph71%30.42 "HgN/A
1:30 AM48 °FCool.10 mph71%30.42 "HgN/A
1:00 AM46 °FCool.7 mph71%30.42 "HgN/A
12:30 AM46 °FCool.7 mph71%30.42 "HgN/A
12:00 AM46 °FCool.8 mph66%30.42 "HgN/A
11:30 PM
Aug 22
48 °FCool.9 mph66%30.42 "HgN/A
11:00 PM48 °FCool.9 mph66%30.39 "HgN/A
10:30 PM48 °FCool.7 mph71%30.39 "HgN/A
10:00 PM50 °FCool.10 mph67%30.39 "HgN/A
9:30 PM50 °FCool.10 mph71%30.39 "HgN/A
9:00 PM50 °FCool.10 mph71%30.39 "HgN/A
8:30 PM50 °FCool.10 mph71%30.39 "HgN/A
8:00 PM50 °FCool.13 mph71%30.39 "HgN/A
7:30 PM50 °FCool.14 mph71%30.36 "HgN/A
7:00 PM50 °FCool.13 mph71%30.36 "HgN/A
6:30 PM50 °FCool.13 mph71%30.36 "HgN/A
6:00 PM52 °FCool.16 mph67%30.33 "HgN/A
5:30 PM52 °FCool.16 mph67%30.33 "HgN/A
5:00 PM52 °FCool.16 mph67%30.33 "HgN/A
4:30 PM54 °FPassing clouds.14 mph63%30.33 "HgN/A
4:00 PM54 °FPartly sunny.14 mph63%30.33 "HgN/A
3:30 PM54 °FScattered clouds.15 mph67%30.33 "HgN/A
3:00 PM54 °FPassing clouds.16 mph58%30.33 "HgN/A
2:30 PM55 °FPartly sunny.13 mph55%30.33 "HgN/A
2:00 PM54 °FCool.14 mph54%30.33 "HgN/A
1:30 PM54 °FCool.12 mph51%30.33 "HgN/A
1:00 PM54 °FCool.12 mph58%30.33 "HgN/A
12:30 PM52 °FCool.14 mph54%30.33 "HgN/A
12:00 PM52 °FCool.7 mph58%30.33 "HgN/A
Weather by CustomWeather, © 2014

See weather overviewHow to use our weather pages